cliquez pour ajouter le site Runraid à vos favoris  English version (google)  Retour à l'accueil Ecrire à l'auteur du site Runraid : Michel Jourdan



Les prochaines courses


Les derniers résultats

cliquez pour visualiser la page complète relatant la chronologie des éruptions du Piton de la Fournaise
éruptions Piton de la Fournaise


Ile de La Réunion

 Diagonale des Fous 

Ecrire au créateur du site : Michel Jourdan
Contact


2018-07-15 - Semi Marathon Ile Maurice

Pour consulter le palmarès d'un coureur, un clic sur son nom !

Vous avez des remarques, corrections, ... sur ces résultats , un clic sur --> pour me transmettre toute information concernant les classements


Semi Marathon Ile Maurice - 2018 : classement des 128 finishers
Place Nom Temps Cat. Club Sexe Clt/cat.
Place Nom Temps Cat. Club Sexe Clt/cat.
1 LALLEMAND Kevin 01:15:28 SEM M 330
2 DESVAUX DE MARIGNY Simon 01:17:42 SEM M 328
3 ITTOO Vishal 01:18:02 V1M M 1 V1M 329
4 RICCI Andrea 01:21:59 V1M M 2 V1M 276
5 SUNNY RADHA Gomesh 01:25:56 SEM M 3 SEM 274
6 EYDATOULA EHSHAN 01:26:51 SEM M 4 SEM 228
7 CAMERON David 01:28:05 SEM M 5 SEM 339
8 ELLIOTT Mark 01:28:42 SEM M 6 SEM 226
9 SCHUT Kirsten 01:29:19 SEF F 1ere F 281
10 DE ROBILLARD Sebastien 01:37:21 SEM M 7 SEM 223
11 OMARJEE Sulliman 01:38:06 V2M M 1 V2M 287
12 SHERFESEE David 01:39:03 V1M M 3 V1M 285
13 LEHEILLEIX mathieu 01:40:01 V1M M 4 V1M 251
14 ERICHSEN Jarn Atle 01:41:07 V2M M 2 V2M 227
15 HOUBERT Raymond 01:41:11 V2M M 3 V2M 242
16 NAYLOR Jaime 01:42:59 SEM M 8 SEM 266
17 BREDOLT Pernilla 01:43:15 SEF F 2 F 211
18 NADEEM MADARBOCCUS SK 01:47:18 SEM M 9 SEM 332
19 KASCHOWITZ Wolfram 01:47:28 V2M M 4 V2M 246
20 BOSWELL Craig 01:48:25 V1M M 5 V1M 355
21 ANWAR COOWAR Mohamad 01:48:32 V2M M 5 V2M 220
22 CITTA NADINE 01:48:33 V2F F 3 F - 1 V2F 218
23 PALISANO Michael 01:49:41 SEM M 10 SEM 343
24 WOLMARANS Gabriel 01:49:56 SEM M 11 SEM 314
25 ATIA STEPHANE 01:50:15 V1M M 6 V1M 201
26 VOLCY Ariel 01:51:03 SEM M 12 SEM 297
27 WAN BUEN CHEONG Stephan 01:51:31 V1M M 7 V1M 299
28 TASSENBACHER Wilfried 01:53:02 V2M M 6 V2M 289
29 YEUNG Kevin 01:53:12 SEM M 13 SEM 304
30 LOOTS Rita 01:53:50 V2F F 4 F - 2 V2F 257
31 NEL Leon 01:54:04 V2M M 7 V2M 267
32 LOOTS Nick 01:54:11 V2M M 8 V2M 256
33 ZHAO Liang 01:54:13 SEM M 14 SEM 306
34 DEMARI Michel 01:55:16 V1M M 8 V1M 225
35 FEUGIER Nicolas 01:56:05 V1M M 9 V1M 230
36 SINGH Manoj 01:56:48 V1M M 10 V1M 313
37 WATKINS Andrew 01:58:02 V1M M 11 V1M 303
38 MWANGI Martha 01:58:12 V1F F 5 F - 1 V1F 312
39 OGILVIE Andrew 01:58:33 SEM M 15 SEM 268
40 HACKNEY Caitlin 01:58:59 SEF F 6 F - 3 SEF 236
41 LIU MAN HIN ANDREW 01:59:03 V1M M 12 V1M 255
42 MILLER Trent 01:59:08 SEM M 16 SEM 331
43 GARRIOCH Martine 02:00:01 V3F F 7 F - 1 V3F 359
44 HESKESTAD Britt 02:00:16 V2F F 8 F - 3 V2F 239
45 CATTO James 02:02:34 SEM M 17 SEM 214
46 CHAN KIN Jean Marie 02:03:03 V2M M 9 V2M 338
47 WARTENBERGER Dieter 02:03:12 V3M M 1 V3M 302
48 SARAH Smith 02:03:13 V2F F 9 F - 4 V2F 279
49 WARREN Karen 02:03:13 V3F F 10 F - 2 V3F 301
50 WANG Lingjian 02:03:41 SEM M 18 SEM 300
51 CONSTANTINOU Constantin 02:03:47 SEM M 19 SEM 315
52 BATHFIELD Marine 02:03:56 SEF F 11 F - 4 SEF 202
53 BRANDENBURG Mark 02:03:57 V1M M 13 V1M 210
54 BHARTI Ajay 02:04:44 V1M M 14 V1M 204
55 DAVIS Alec 02:05:08 V2M M 10 V2M 5310
56 ZIYANG Guo 02:05:16 V1M M 15 V1M 307
57 ISABEL Rademan 02:05:45 SEF F 12 F - 5 SEF 243
58 JANSEN Morne 02:05:46 SEM M 20 SEM 244
59 STEPHANE Tony 02:06:57 SEM M 21 SEM 316
60 LOUIS LOUISE Steward 02:06:57 JUM M 1 JUM 317
61 HAND Colin 02:07:11 V1M M 16 V1M 326
62 LI FEI 02:07:50 SEM M 22 SEM 333
63 GOUREL DE ST PERN Alexandre 02:08:18 V1M M 17 V1M 234
64 MASSON Florent 02:08:18 V1M M 18 V1M 260
65 GARBERS Francoise 02:08:40 V2F F 13 F - 5 V2F 10311
66 LENOIR Fabienne 02:09:42 V1F F 14 F - 2 V1F 252
67 HACKNEY Tim 02:10:03 V2M M 11 V2M 237
68 MALHERBE Francois 02:10:17 V2M M 12 V2M 321
69 GOPAUL Khousbou 02:10:34 SEF F 15 F - 6 SEF 232
70 LINCOLN Valerie 02:11:58 SEF F 16 F - 7 SEF 254
71 LE COURT DE BILLOT Didier 02:12:09 V2M M 13 V2M 341
72 MONNIER Frederic 02:13:19 V2M M 14 V2M 262
73 HEUCLIN Andre 02:13:40 V2M M 15 V2M 241
74 WALTON gary 02:14:53 V2M M 16 V2M 298
75 SCARBOROUGH samantha 02:14:54 V1F F 17 F - 3 V1F 280
76 CHAPONDA Mazunzo 02:16:23 V1M M 19 V1M 350
77 AUGUSTINE NAYABOURY Marie Edmee 02:18:02 V2F F 18 F - 6 V2F 208
78 BISSOONAUTH Soraj 02:18:10 V1M M 20 V1M 207
79 LAGESSE Renaud 02:18:37 V2M M 17 V2M 247
80 YASHEEN HOSANEE MOHAMAD 02:18:50 SEM M 23 SEM 319
81 CONTRI SERENA 02:18:53 SEF F 19 F - 8 SEF 219
82 LEE YAM SENG James 02:19:41 V2M M 18 V2M 249
83 PENG LiPing 02:20:01 SEF F 20 F - 9 SEF 272
84 ANTOINE Mike 02:20:08 V1M M 21 V1M 200
85 TURPIN Olivier 02:20:15 V1M M 22 V1M 293
86 BONGERS Carly 02:20:42 SEF F 21 F - 10 SEF 209
87 OZOUX Gauthier 02:21:20 SEM M 24 SEM 327
88 LUKHELE Nompumelelo 02:22:29 SEF F 22 F - 11 SEF 258
89 VAN ZYL Reinhardt 02:23:50 SEM M 25 SEM 294
90 HALGAND Amaury 02:24:44 V1M M 23 V1M 238
91 DAN DEWAL Kishan 02:26:13 SEM M 26 SEM 344
92 VAN ZYL Retha 02:27:02 SEF F 23 F - 12 SEF 295
93 SAUNDERSON Murray 02:28:49 V2M M 19 V2M 337
94 LI SUNG SANG Michael 02:29:57 V3M M 2 V3M 253
95 DEERAPLSING Nuvin 02:30:09 V1M M 24 V1M 309
96 SESINYI Tshikanyane 02:30:33 V1M M 25 V1M 284
97 TAJOOODEEN Ishaq 02:30:41 SEM M 27 SEM 320
98 CARRILLO Pepe 02:31:29 SEM M 28 SEM 345
99 OPPERMAN Riaan 02:31:37 SEM M 29 SEM 269
100 BISHOP Linda 02:31:58 V2F F 24 F - 7 V2F 206
101 CHUNG TAM TSANG Yannick 02:32:31 SEM M 30 SEM 217
102 KAKKAR GAURAV 02:33:05 V2M M 20 V2M 245
103 BETALA Roop 02:33:35 V2M M 21 V2M 203
104 MUSLUN Junaid 02:33:52 V2M M 22 V2M 264
105 MOHAMED YUNUS Badruldien 02:35:31 V2M M 23 V2M 261
106 MALENGREAUX Lisa 02:38:51 SEF F 25 F - 13 SEF 322
107 MALENGREAUX Jean Louis 02:38:51 V3M M 3 V3M 325
108 DERUDDER Aubert 02:38:55 SEM M 31 SEM 323
109 TEO Kenneth 02:40:04 SEM M 32 SEM 290
110 XIN CHAN LI 02:40:04 SEF F 26 F - 14 SEF 215
111 TURPIN Fanny 02:41:09 V1F F 27 F - 4 V1F 292
112 MONNIER Stella 02:41:10 SEF F 28 F - 15 SEF 263
113 DARUTY Sebastien 02:41:33 SEM M 33 SEM 308
114 DARUTY Beatrice 02:41:34 SEF F 29 F - 16 SEF 222
115 GOVENDER Michelle 02:47:22 V1F F 30 F - 5 V1F 235
116 BUCKUS Nazrana 02:51:09 V2F F 31 F - 8 V2F 212
117 NAIDOO GOPALAKRISHNA 02:52:25 V4M M 1 V4M 265
118 SEATE letshego 02:53:47 V1F F 32 F - 6 V1F 282
119 CHIPEMBELE precious 02:56:56 SEF F 33 F - 17 SEF 216
120 LEFEVRE Kristin 03:05:37 V1F F 34 F - 7 V1F 250
121 TREVIRANUS Lori 03:05:37 SEF F 35 F - 18 SEF 291
122 SEEDAT Bilal 03:07:25 V1M M 26 V1M 283
123 HOOLASH Niazi 03:17:40 V1M M 27 V1M 340
124 GORMAN Kathleen 03:21:43 SEF F 36 F - 19 SEF 233
125 GAGE Catherine 03:24:04 V3F F 37 F - 3 V3F 231
126 MALELE RETSEBILE 03:24:05 SEF F 38 F - 20 SEF 353
127 REDDY Loganathan 03:38:59 V2M M 24 V2M 275
128 ZANCHETTA RODOLFO 03:48:07 V4M M 2 V4M 305


ReferencementCe site est listé dans la catégorie Sport : Sports extrêmes Dictionnaire
| Accueil | La Réunion  Vue du ciel | Météo | Cyclones | Volcan | Cirques de Mafate , Cilaos , Salazie | Photos Randonnées | Randonnées Réunion: Randos Espiègle , Courses montagne | Diagonale des Fous |  Marathon des Sables | Voyages Les stats du site | Fonds écran | Plan du site | Blog de runraid | Galerie photos Sport Réunion |